Location: Dillon
(41.1766°N, 107.0923°W)
Time: 14:29:28
(UTC+00:00)

RS-44 - Pass Details

Date: 28 June 2022
Orbit: 1175 x 1510 km, 82.5° (Epoch: 07 August)

Event Time Altitude Azimuth Distance (km) Brightness Sun altitude
Rises 03:18:22 0° 170° (S) 4,255 ? -5.9°
Reaches altitude 10° 03:21:05 10° 166° (SSE) 3,332 ? -6.3°
Maximum altitude 03:28:48 58° 90° (E) 1,593 ? -7.4°
Drops below altitude 10° 03:37:07 10° 15° (NNE) 3,586 ? -8.6°
Sets 03:40:07 0° 12° (NNE) 4,600 ? -9.0°
